EW7806 Weather Reports


Display with metric or nautical units.
time (UTC)temp
F
wind
direction
speed
MPH
gust
MPH
rain 1hr
in
rain 24hr
in
rain mn
in
humidity
%
barometer
mb
20260508235335 50 68 0.0 0.0 0.00 0.00 0.00 87 1019.2
20260508234336 50 68 0.0 0.0 0.00 0.00 0.00 88 1019.2
20260508233833 50 68 0.0 0.0 0.00 0.00 0.00 88 1019.3
20260508233311 50 68 0.0 0.0 0.00 0.00 0.00 88 1019.2
20260508232309 50 68 0.0 0.0 0.00 0.00 0.00 88 1019.3
20260508231306 50 68 0.0 0.0 0.00 0.00 0.00 87 1019.2
20260508230806 50 68 0.0 0.0 0.00 0.00 0.00 87 1019.3
20260508230305 50 68 0.0 0.0 0.00 0.00 0.00 87 1019.3
20260508225805 50 68 0.0 0.0 0.00 0.00 0.00 86 1019.3
20260508225234 50 68 0.0 0.0 0.00 0.00 0.00 87 1019.3
20260508224732 50 68 0.0 0.0 0.00 0.00 0.00 86 1019.2
20260508224232 50 68 0.0 0.0 0.00 0.00 0.00 86 1019.2
20260508223208 50 69 0.0 0.0 0.00 0.00 0.00 85 1019.2
20260508222705 50 69 0.0 0.0 0.00 0.00 0.00 85 1019.2
20260508222142 50 69 0.0 0.0 0.00 0.00 0.00 85 1019.2
20260508221134 50 69 0.0 0.0 0.00 0.00 0.00 84 1019.2
20260508220133 51 69 0.0 0.0 0.00 0.00 0.00 85 1019.2
20260508215610 51 69 0.0 0.0 0.00 0.00 0.00 84 1019.2
20260508215113 51 69 0.0 0.0 0.00 0.00 0.00 84 1019.3
20260508214605 51 69 0.0 0.0 0.00 0.00 0.00 83 1019.3
20260508214104 51 69 0.0 0.0 0.00 0.00 0.00 83 1019.3
20260508213606 51 69 0.0 0.0 0.00 0.00 0.00 83 1019.3
20260508212607 52 69 0.0 0.0 0.00 0.00 0.00 83 1019.2
20260508212113 52 69 0.0 0.0 0.00 0.00 0.00 82 1019.2
20260508211611 52 69 0.0 0.0 0.00 0.00 0.00 82 1019.3
20260508210539 53 69 0.0 0.0 0.00 0.00 0.00 79 1019.2
20260508210038 53 69 0.0 0.0 0.00 0.00 0.00 79 1019.2
20260508205523 53 69 0.0 0.0 0.00 0.00 0.00 79 1019.2
20260508205027 54 69 0.0 0.0 0.00 0.00 0.00 78 1019.2
20260508204020 54 69 0.0 0.0 0.00 0.00 0.00 77 1019.1
20260508203518 54 69 0.0 0.0 0.00 0.00 0.00 75 1019.1
20260508203010 54 69 0.0 0.0 0.00 0.00 0.00 74 1019.1
20260508202023 55 69 0.0 0.0 0.00 0.00 0.00 73 1019.2
20260508201508 55 69 0.0 0.0 0.00 0.00 0.00 73 1019.2
20260508201023 55 69 0.0 0.0 0.00 0.00 0.00 72 1019.1
20260508195950 56 69 0.0 0.0 0.00 0.00 0.00 70 1019.1
20260508195434 56 69 0.0 0.0 0.00 0.00 0.00 69 1019.1
20260508194933 57 69 0.0 0.0 0.00 0.00 0.00 69 1019.0
20260508194433 57 69 0.0 0.0 0.00 0.00 0.00 69 1019.0
20260508193922 57 69 0.0 0.0 0.00 0.00 0.00 65 1019.0
20260508193418 58 55 0.0 0.0 0.00 0.00 0.00 64 1019.0
20260508192405 58 46 0.0 0.0 0.00 0.00 0.00 63 1018.8
20260508191906 59 46 0.0 0.0 0.00 0.00 0.00 60 1018.7
20260508190835 59 46 0.0 0.0 0.00 0.00 0.00 58 1018.6
20260508190335 60 46 0.0 0.0 0.00 0.00 0.00 56 1018.5
20260508185831 60 46 0.0 0.0 0.00 0.00 0.00 56 1018.5
20260508185321 60 46 0.0 0.0 0.00 0.00 0.00 55 1018.4
20260508184805 60 46 0.0 0.0 0.00 0.00 0.00 54 1018.4
20260508183807 61 44 0.0 0.0 0.00 0.00 0.00 53 1018.3
20260508183311 61 44 0.0 0.0 0.00 0.00 0.00 52 1018.3
20260508182805 61 44 0.0 1.0 0.00 0.00 0.00 53 1018.2
20260508181804 62 49 0.0 0.0 0.00 0.00 0.00 51 1018.1
20260508181232 62 55 0.0 0.0 0.00 0.00 0.00 50 1018.0
20260508180732 62 55 0.0 0.0 0.00 0.00 0.00 49 1018.0
20260508175723 62 39 0.0 1.0 0.00 0.00 0.00 49 1018.0
20260508175225 62 38 0.0 1.0 0.00 0.00 0.00 48 1017.9
20260508174706 62 49 0.0 0.0 0.00 0.00 0.00 48 1018.0
20260508174207 62 47 0.0 1.0 0.00 0.00 0.00 50 1018.0
20260508173704 63 47 0.0 1.0 0.00 0.00 0.00 48 1018.0
20260508173205 63 53 0.0 0.0 0.00 0.00 0.00 50 1018.0
20260508172632 63 53 0.0 0.0 0.00 0.00 0.00 51 1017.9
20260508172134 62 53 0.0 0.0 0.00 0.00 0.00 51 1017.9
20260508171635 62 52 0.0 0.0 0.00 0.00 0.00 51 1017.9
20260508171130 62 53 0.0 0.0 0.00 0.00 0.00 51 1017.9
20260508170632 62 53 0.0 0.0 0.00 0.00 0.00 49 1017.9
20260508170141 62 52 0.0 0.0 0.00 0.00 0.00 49 1017.8
20260508165126 62 49 0.0 0.0 0.00 0.00 0.00 51 1017.9
20260508164613 62 46 0.0 0.0 0.00 0.00 0.00 48 1017.8
20260508163607 63 47 0.0 0.0 0.00 0.00 0.00 47 1017.9
20260508163105 63 47 0.0 0.0 0.00 0.00 0.00 48 1017.8
20260508162542 63 46 0.0 0.0 0.00 0.00 0.00 46 1017.8
20260508161534 63 46 0.0 1.0 0.00 0.00 0.00 48 1017.9
20260508161031 63 37 0.0 1.0 0.00 0.00 0.00 48 1017.9
20260508160027 63 43 0.0 3.0 0.00 0.00 0.00 48 1017.8
20260508155516 64 46 0.0 3.0 0.00 0.00 0.00 49 1017.8
20260508155015 64 70 0.0 3.0 0.00 0.00 0.00 48 1017.8
20260508154503 64 31 0.0 6.0 0.00 0.00 0.00 50 1017.8
20260508154008 63 86 0.0 6.0 0.00 0.00 0.00 50 1017.8
20260508152938 64 109 0.0 5.0 0.00 0.00 0.00 48 1017.9
20260508152434 63 47 0.0 5.0 0.00 0.00 0.00 48 1017.8
20260508151934 63 95 0.0 4.0 0.00 0.00 0.00 48 1017.9
20260508151409 63 27 0.0 5.0 0.00 0.00 0.00 48 1017.9
20260508150907 64 37 0.0 5.0 0.00 0.00 0.00 47 1017.9
20260508145906 64 355 0.0 3.0 0.00 0.00 0.00 49 1018.0
20260508145404 64 41 0.0 3.0 0.00 0.00 0.00 49 1018.0
20260508144334 64 63 0.0 6.0 0.00 0.00 0.00 50 1018.0
20260508143833 64 312 0.0 6.0 0.00 0.00 0.00 50 1018.1
20260508142814 64 47 1.0 6.0 0.00 0.00 0.00 50 1018.2
20260508142309 64 38 1.0 6.0 0.00 0.00 0.00 48 1018.2
20260508141807 64 45 0.0 3.0 0.00 0.00 0.00 49 1018.3
20260508141303 64 25 0.0 5.0 0.00 0.00 0.00 49 1018.3
20260508140803 64 37 1.0 5.0 0.00 0.00 0.00 50 1018.3
20260508140304 64 46 1.0 5.0 0.00 0.00 0.00 51 1018.4
20260508135734 64 37 0.0 5.0 0.00 0.00 0.00 50 1018.3
20260508135235 64 41 0.0 7.0 0.00 0.00 0.00 51 1018.4
20260508134208 65 29 0.0 2.0 0.00 0.00 0.00 52 1018.4
20260508133708 65 270 0.0 2.0 0.00 0.00 0.00 49 1018.3
20260508133206 65 38 0.0 2.0 0.00 0.00 0.00 51 1018.4
20260508132641 65 51 0.0 3.0 0.00 0.00 0.00 51 1018.5
20260508132133 65 55 0.0 3.0 0.00 0.00 0.00 49 1018.4
20260508131633 66 34 0.0 3.0 0.00 0.00 0.00 49 1018.4
20260508131135 66 56 0.0 7.0 0.00 0.00 0.00 50 1018.4
20260508130134 66 13 1.0 6.0 0.00 0.00 0.00 49 1018.5
20260508125133 66 22 0.0 6.0 0.00 0.00 0.00 50 1018.6
20260508124132 66 16 0.0 8.0 0.00 0.00 0.00 50 1018.6
20260508123630 66 79 1.0 8.0 0.00 0.00 0.00 49 1018.7
20260508123135 67 21 1.0 6.0 0.00 0.00 0.00 49 1018.6
20260508122631 67 33 0.0 6.0 0.00 0.00 0.00 49 1018.6
20260508122130 67 45 0.0 3.0 0.00 0.00 0.00 49 1018.6
20260508121633 67 49 0.0 5.0 0.00 0.00 0.00 48 1018.6
20260508121134 67 51 0.0 5.0 0.00 0.00 0.00 50 1018.6
20260508120634 67 37 0.0 4.0 0.00 0.00 0.00 51 1018.6
20260508120132 66 39 1.0 5.0 0.00 0.00 0.00 51 1018.6
20260508115630 66 12 1.0 6.0 0.00 0.00 0.00 50 1018.6
20260508115131 66 46 1.0 6.0 0.00 0.00 0.00 50 1018.7
20260508114639 65 22 0.0 5.0 0.00 0.00 0.00 52 1018.7
20260508114131 66 44 0.0 10.0 0.00 0.00 0.00 53 1018.7
20260508113131 65 98 1.0 10.0 0.00 0.00 0.00 52 1018.7
20260508112614 65 96 1.0 10.0 0.00 0.00 0.00 55 1018.7
20260508112105 65 56 1.0 8.0 0.00 0.00 0.00 54 1018.8
20260508111607 65 53 1.0 10.0 0.00 0.00 0.00 54 1018.6
20260508111106 65 41 1.0 10.0 0.00 0.00 0.00 54 1018.7
20260508110104 65 27 1.0 5.0 0.00 0.00 0.00 56 1018.7
20260508105546 65 53 0.0 7.0 0.00 0.00 0.00 55 1018.8
20260508105037 65 54 0.0 5.0 0.00 0.00 0.00 56 1018.8
20260508104533 64 59 0.0 5.0 0.00 0.00 0.00 56 1018.7
20260508104042 64 29 1.0 5.0 0.00 0.00 0.00 58 1018.7
20260508103533 63 53 2.0 10.0 0.00 0.00 0.00 59 1018.8
20260508103028 63 357 2.0 11.0 0.00 0.00 0.00 59 1018.9
20260508102518 62 49 2.0 11.0 0.00 0.00 0.00 60 1018.9
20260508102025 63 39 1.0 6.0 0.00 0.00 0.00 60 1018.9
20260508101458 63 34 1.0 9.0 0.00 0.00 0.00 60 1018.9
20260508100956 63 109 1.0 9.0 0.00 0.00 0.00 60 1019.0
20260508100451 62 49 1.0 11.0 0.00 0.00 0.00 61 1018.9
20260508095932 62 46 1.0 11.0 0.00 0.00 0.00 61 1018.9
20260508095434 62 68 1.0 9.0 0.00 0.00 0.00 62 1018.9
20260508094934 61 32 1.0 7.0 0.00 0.00 0.00 62 1019.0
20260508094405 61 3 1.0 9.0 0.00 0.00 0.00 62 1019.0
20260508093905 61 40 1.0 9.0 0.00 0.00 0.00 64 1019.0
20260508093406 61 42 0.0 7.0 0.00 0.00 0.00 64 1019.0
20260508092905 61 30 1.0 7.0 0.00 0.00 0.00 64 1019.0
20260508092406 61 22 1.0 8.0 0.00 0.00 0.00 64 1019.0
20260508091904 60 103 1.0 8.0 0.00 0.00 0.00 64 1018.9
20260508091333 61 13 1.0 7.0 0.00 0.00 0.00 65 1019.0
20260508090332 60 55 1.0 7.0 0.00 0.00 0.00 67 1018.9
20260508085809 60 35 1.0 6.0 0.00 0.00 0.00 67 1018.9
20260508085307 59 27 1.0 6.0 0.00 0.00 0.00 68 1018.9
20260508084301 58 45 1.0 7.0 0.00 0.00 0.00 71 1018.9
20260508083305 56 17 1.0 6.0 0.00 0.00 0.00 75 1019.0
20260508082801 56 79 1.0 6.0 0.00 0.00 0.00 75 1018.9
20260508082301 55 39 1.0 7.0 0.00 0.00 0.00 77 1018.9
20260508081807 54 24 2.0 8.0 0.00 0.00 0.00 76 1019.0
20260508081233 54 67 2.0 10.0 0.00 0.00 0.00 77 1019.0
20260508080735 54 51 1.0 10.0 0.00 0.00 0.00 76 1019.0
20260508075208 54 45 1.0 6.0 0.00 0.00 0.00 79 1019.0
20260508074706 53 58 1.0 6.0 0.00 0.00 0.00 80 1019.0
20260508074203 53 92 1.0 5.0 0.00 0.00 0.00 80 1019.0
20260508073704 53 60 1.0 5.0 0.00 0.00 0.00 81 1019.0
20260508072704 53 30 1.0 8.0 0.00 0.00 0.00 82 1019.0
20260508072207 52 46 1.0 8.0 0.00 0.00 0.00 83 1019.0
20260508071135 52 42 2.0 8.0 0.00 0.00 0.00 83 1018.9
20260508070632 52 20 2.0 8.0 0.00 0.00 0.00 83 1018.9
20260508070203 52 27 2.0 8.0 0.00 0.00 0.00 83 1018.8
20260508065631 52 45 1.0 8.0 0.00 0.00 0.00 84 1018.8
20260508065150 52 32 1.0 3.0 0.00 0.00 0.00 84 1018.8
20260508064635 51 27 1.0 6.0 0.00 0.00 0.00 84 1018.7
20260508064128 51 75 1.0 6.0 0.00 0.00 0.00 85 1018.7
20260508063608 51 70 0.0 5.0 0.00 0.00 0.00 85 1018.7
20260508063106 51 23 0.0 6.0 0.00 0.00 0.00 86 1018.6
20260508062605 51 43 1.0 6.0 0.00 0.00 0.00 86 1018.6
20260508062112 51 18 1.0 6.0 0.00 0.00 0.00 86 1018.5
20260508061604 51 32 0.0 6.0 0.00 0.00 0.00 86 1018.5
20260508061040 51 52 0.0 2.0 0.00 0.00 0.00 87 1018.5
20260508060034 51 56 0.0 2.0 0.00 0.00 0.00 87 1018.4
20260508055535 51 52 0.0 2.0 0.00 0.00 0.00 87 1018.4
20260508054532 50 49 0.0 4.0 0.00 0.00 0.00 88 1018.4
20260508054043 50 46 0.0 2.0 0.00 0.00 0.00 88 1018.3
20260508053533 50 37 0.0 1.0 0.00 0.00 0.00 88 1018.3
20260508053037 50 52 0.0 1.0 0.00 0.00 0.00 88 1018.2
20260508052519 50 44 0.0 1.0 0.00 0.00 0.00 88 1018.2
20260508052031 50 72 0.0 1.0 0.00 0.00 0.00 88 1018.2
20260508051453 50 72 0.0 1.0 0.00 0.00 0.00 88 1018.2
20260508050942 50 58 0.0 1.0 0.00 0.00 0.00 88 1018.1
20260508050441 50 37 0.0 2.0 0.00 0.00 0.00 88 1018.0
20260508045915 50 37 0.0 2.0 0.00 0.00 0.00 89 1018.0
20260508045424 50 37 0.0 1.0 0.00 0.00 0.00 89 1017.9
20260508044353 50 95 0.0 1.0 0.00 0.00 0.00 89 1017.9
20260508043847 49 44 0.0 0.0 0.00 0.00 0.00 89 1017.9
20260508043340 49 75 0.0 0.0 0.00 0.00 0.00 89 1017.9
20260508042834 49 41 0.0 1.0 0.00 0.00 0.00 89 1017.9
20260508041836 49 41 0.0 0.0 0.00 0.00 0.00 89 1017.9
20260508041332 49 41 0.0 0.0 0.00 0.00 0.00 89 1017.8
20260508040815 49 41 0.0 0.0 0.00 0.00 0.00 89 1017.9
20260508040305 49 41 0.0 0.0 0.00 0.00 0.00 89 1017.9
20260508035807 49 41 0.0 0.0 0.00 0.00 0.00 89 1017.9
20260508035307 49 41 0.0 0.0 0.00 0.00 0.00 89 1017.8
20260508034806 49 40 0.0 0.0 0.00 0.00 0.00 89 1017.8
20260508034237 49 41 0.0 0.0 0.00 0.00 0.00 89 1017.8
20260508033734 49 41 0.0 0.0 0.00 0.00 0.00 89 1017.9
20260508032713 49 41 0.0 0.0 0.00 0.00 0.00 89 1017.8
20260508032207 49 41 0.0 0.0 0.00 0.00 0.00 89 1017.8
20260508031714 49 41 0.0 0.0 0.00 0.00 0.00 88 1017.7
20260508031207 49 41 0.0 0.0 0.00 0.00 0.00 88 1017.7
20260508030207 49 41 0.0 0.0 0.00 0.00 0.00 88 1017.7
20260508025635 49 41 0.0 0.0 0.00 0.00 0.00 88 1017.6
20260508025133 49 41 0.0 0.0 0.00 0.00 0.00 88 1017.7
20260508024636 49 41 0.0 0.0 0.00 0.00 0.00 88 1017.6
20260508024112 49 40 0.0 0.0 0.00 0.00 0.00 88 1017.6
20260508023106 49 41 0.0 0.0 0.00 0.00 0.00 88 1017.6
20260508022605 49 40 0.0 0.0 0.00 0.00 0.00 88 1017.7
20260508022043 49 40 0.0 0.0 0.00 0.00 0.00 88 1017.7
20260508021044 49 37 0.0 1.0 0.00 0.00 0.00 88 1017.7
20260508020533 49 36 0.0 1.0 0.00 0.00 0.00 88 1017.7
20260508020036 48 37 0.0 1.0 0.00 0.00 0.00 88 1017.7
20260508015529 48 37 0.0 1.0 0.00 0.00 0.00 88 1017.7
20260508015038 48 49 0.0 0.0 0.00 0.00 0.00 88 1017.6
20260508014031 48 49 0.0 0.0 0.00 0.00 0.00 88 1017.6
20260508013525 48 49 0.0 0.0 0.00 0.00 0.00 88 1017.6
20260508013036 48 58 0.0 0.0 0.00 0.00 0.00 88 1017.6
20260508012524 48 58 0.0 0.0 0.00 0.00 0.00 88 1017.7
20260508011524 48 58 0.0 0.0 0.00 0.00 0.00 88 1017.7
20260508011034 48 58 0.0 0.0 0.00 0.00 0.00 88 1017.7
20260508010452 48 58 0.0 0.0 0.00 0.00 0.00 88 1017.8
20260508005941 48 58 0.0 0.0 0.00 0.00 0.00 88 1017.8
20260508005418 48 58 0.0 0.0 0.00 0.00 0.00 88 1017.8
20260508004914 48 58 0.0 0.0 0.00 0.00 0.00 88 1017.8
20260508004407 48 58 0.0 0.0 0.00 0.00 0.00 88 1017.8
20260508003908 48 58 0.0 0.0 0.00 0.00 0.00 88 1017.9
20260508003405 48 58 0.0 0.0 0.00 0.00 0.00 88 1017.9
20260508002849 48 58 0.0 0.0 0.00 0.00 0.00 88 1017.9
20260508001836 49 58 0.0 0.0 0.00 0.00 0.00 87 1017.8
20260508000808 49 58 0.0 0.0 0.00 0.00 0.00 87 1017.8
20260508000258 49 58 0.0 0.0 0.00 0.00 0.00 87 1017.8